Weather in Primorsk

Russia / Volgograd Oblast     49°16′03″N   45°01′56″E
temp.,
°C
wind,
m/s
gust,
m/s
humid.,
%
clouds,
%
prec.,
mm/h
press.,
hPa
HPBL,
m
13 june, sun
sun1300:00+18s117611 0.0 101211
03:00+17nw1183100 0.5 101211
06:00+18s2284100 1.3 101242
09:00+17ese3391100 4.4 101263
12:00+17sw3490100 3.3 101388
15:00+19ssw2277100 3.3 1012235
18:00+20sw117411 0.0 101170
21:00+19nnw2278100 0.0 101211
14 june, mon
mon1400:00+18e2282100 0.5 101214
03:00+18nne3381100 0.8 101221
06:00+18e3489100 0.5 101372
09:00+18ene4486100 0.6 1013176
12:00+19ne3483100 0.0 1014146
15:00+19nne3484100 0.0 1013244
18:00+20n4478100 0.0 1012268
21:00+19nne3385100 0.0 101329
15 june, tue
tue1500:00+17n349399 0.0 101251
03:00+16n45944 0.0 101155
06:00+17n459410 0.0 1011112
09:00+19n448589 0.0 1011258
12:00+20n33785 0.0 1010407
15:00+21n55732 0.0 1009386
18:00+23nw45665 0.0 1009350
21:00+20nw45812 0.0 101048
16 june, wed
wed1600:00+18nw338849 0.0 101033
03:00+17nw22890 0.0 101014
06:00+18nnw22865 0.0 101165
09:00+20sw23760 0.0 1011241
12:00+24sw34620 0.0 1011454
15:00+26wnw34530 0.0 1010604
18:00+25nnw45560 0.0 1011178
21:00+22n44680 0.0 101224
17 june, thu
thu1700:00+20nne44734 0.0 101226
03:00+19nne45820 0.0 101246
06:00+19nne56864 0.0 1013104
09:00+21nne57701 0.0 1014253
12:00+23nne566186 0.0 1014402
15:00+24nne896584 0.0 1014479
18:00+23nne8127582 0.0 1015241
21:00+21ne9147716 0.0 1016272